This demonstration page uses our WeatherBlox Daily Observations layout. Learn more.

Left ArrowRight Arrow

39.08367, -84.50855

Hourly Observations for January 7, 2015

Temp ( °F °C ) Dew Point ( °F °C ) Humidity (%) Winds ( mph kmh ) Pressure ( in mb ) Visibility ( mi km ) Precip ( " mm )
12:53 am 00:53 Cloudy 19 -7.2 8 -13.3 62 62 W 15 24 30.31 1027 10 16.0934 0 0
1:53 am 01:53 Cloudy 18 -7.8 5 -15 57 57 W 16 26 30.32 1027 10 16.0934 0 0
2:53 am 02:53 Mostly Clear 18 -7.8 5 -15 57 57 WNW 12 19 30.33 1027 10 16.0934 0 0
3:53 am 03:53 Cloudy 17 -8.3 5 -15 59 59 W 10 17 30.34 1027 10 16.0934 0 0
4:53 am 04:53 Cloudy with Light Snow 16 -8.9 9 -12.8 74 74 W 15 24 30.35 1028 2.5 4.02335 0 0.0254
5:07 am 05:07 Cloudy with Light Snow 15 -9.4 8 -13.3 74 74 WNW 15 24 30.36 1028 4 6.43736 0 0.0254
5:44 am 05:44 Cloudy 16 -9 9 -13 73 73 WNW 13 20 30.39 1029 10 16.0934 0 0
5:53 am 05:53 Cloudy 15 -9.4 7 -13.9 70 70 W 13 20 30.37 1028 10 16.0934 0 0.0254
6:43 am 06:43 Cloudy 15 -9.4 6 -14.4 67 67 NW 8 13 30.39 1029 9 14.48406 0 0.0254
6:53 am 06:53 Cloudy 15 -9.4 6 -14.4 67 67 NNW 15 24 30.4 1029 9 14.48406 0 0.0254
7:12 am 07:12 Cloudy with Light Snow 14 -10 9 -13 79 79 NW 15 24 30.42 1030 1.75 2.816345 0 0
7:21 am 07:21 Cloudy with Light Snow 14 -10 7 -13.9 73 73 WNW 13 20 30.42 1030 3 4.82802 0 0.0254
7:53 am 07:53 Mostly Cloudy 12 -11.1 3 -16.1 67 67 WNW 13 20 30.44 1031 10 16.0934 0 0.0254
8:53 am 08:53 Cloudy 11 -11.7 1 -17.2 64 64 NW 15 24 30.49 1033 10 16.0934 0 0
9:09 am 09:09 Cloudy with Light Snow 10 -12.2 1 -17.2 67 67 WNW 13 20 30.56 1035 4 6.43736 0 0.0254
9:53 am 09:53 Cloudy 10 -12.2 0 -17.8 63 63 NNW 13 20 30.54 1034 10 16.0934 0 0.0254
10:53 am 10:53 Partly Cloudy 10 -12.2 -1 -18.3 61 61 NW 16 26 30.56 1035 10 16.0934 0 0
11:53 am 11:53 Partly Cloudy 13 -10.6 0 -17.8 56 56 NW 17 28 30.57 1035 10 16.0934 0 0
12:53 pm 12:53 Mostly Cloudy 13 -10.6 -1 -18.3 54 54 NW 20 31 30.58 1036 10 16.0934 0 0
1:53 pm 13:53 Mostly Cloudy 14 -10 -1 -18.3 51 51 NNW 21 33 30.59 1036 10 16.0934 0 0
2:07 pm 14:07 Mostly Cloudy 13 -10.6 -1 -18.3 54 54 WNW 12 19 30.62 1037 10 16.0934 0 0
2:53 pm 14:53 Mostly Cloudy 14 -10 -2 -18.9 49 49 NW 14 22 30.63 1037 10 16.0934 0 0
3:53 pm 15:53 Partly Cloudy 12 -11.1 -2 -18.9 53 53 NW 17 28 30.67 1039 10 16.0934 0 0
4:53 pm 16:53 Cloudy 10 -12.2 -4 -20 53 53 WNW 15 24 30.72 1040 10 16.0934 0 0
5:53 pm 17:53 Clear 8 -13.3 -4 -20 57 57 NW 10 17 30.75 1041 10 16.0934 0 0
6:53 pm 18:53 Clear 7 -13.9 -5 -20.6 57 57 NW 7 11 30.78 1042 10 16.0934 0 0
7:53 pm 19:53 Clear 5 -15 -7 -21.7 57 57 NNW 10 17 30.8 1043 10 16.0934 0 0
8:53 pm 20:53 Clear 5 -15 -7 -21.7 57 57 NNW 7 11 30.81 1043 10 16.0934 0 0
9:53 pm 21:53 Clear 4 -15.6 -8 -22.2 57 57 WNW 10 17 30.81 1044 10 16.0934 0 0
10:53 pm 22:53 Clear 2 -16.7 -9 -22.8 59 59 NW 9 15 30.82 1044 10 16.0934 0 0
11:53 pm 23:53 Clear 2 -16.7 -8 -22.2 63 63 NW 5 7 30.81 1043 10 16.0934 0 0

Powered by AerisWeather